カタログに戻る

IRIDIUM 134

運用中通信PO
NORAD 43075·PAYLOAD·🇺🇸 United States

打ち上げ Dec 23, 2017 から Vandenberg Space Force Base

Loading…

次のパス (今後24時間)

TLE

最新Source: CelesTrak SupGP

元期: Sep 14, 2026, 20:51 UTC

1 43075C 17083F   26257.86909722  .00002200  00000+0  78666-3 0  2579
2 43075  86.3916 284.5773 0002306  91.9749  14.4101 14.34214418    14

AllMySatでIRIDIUM 134をリアルタイム追跡

Download on the App Store